Location: Hermaringen
(48.5952°N, 10.2585°E)
Time: 08:04:25
(UTC+00:00)

Cosmos 1975 Rocket - Pass Details

Date: 18 November 2025
Orbit: 598 x 626 km, 82.5° (Epoch: 13 December)

Event Time Altitude Azimuth Distance (km) Brightness Sun altitude
Rises 16:03:56 0° 355° (N) 2,872 6.3 -5.0°
Reaches altitude 10° 16:06:13 10° 1° (N) 1,968 5.4 -5.3°
Maximum altitude 16:10:26 48° 76° (ENE) 807 3.3 -6.0°
Drops below altitude 10° 16:14:39 10° 151° (SSE) 1,969 5.6 -6.6°
Sets 16:16:56 0° 157° (SSE) 2,874 6.5 -7.0°
